Simultaneous Nadir Overpasses (SNOs) Predictions

Prediction of SNOs between METOP-A and NPP Satellite Orbit:

Table of predicted SNOs for the next 14.0 days since TLE Epoch: 12/7/2019
Index Date (METOP-A) Time (METOP-A) Lat,Lon (METOP-A) SZA (METOP-A ) Date (NPP) Time (NPP) Lat,Lon (NPP) SZA (NPP ) Distance(km) Time Diff (sec)
1 12/21/2019 15:46:56 75.54, -67.89 99.12 12/21/2019 15:45:51 75.52, -71.47 99.31 99.44 65
2 12/21/2019 16:37:40 -75.44, 99.16 80.96 12/21/2019 16:36:33 -75.41, 96.19 80.83 83.00 67
3 12/21/2019 17:28:25 75.18, -94.27 98.82 12/21/2019 17:27:14 75.20, -95.86 98.93 45.18 71
4 12/21/2019 18:19:09 -75.09, 72.79 81.26 12/21/2019 18:17:56 -75.09, 71.78 81.20 28.85 73
5 12/21/2019 19:09:52 74.92,-120.35 98.60 12/21/2019 19:08:38 74.92,-120.43 98.62 2.41 74
6 12/21/2019 20:00:34 -74.93, 47.00 81.40 12/21/2019 19:59:22 -74.90, 46.93 81.41 3.15 72
7 12/21/2019 20:51:14 74.90,-145.74 98.58 12/21/2019 20:50:07 74.88,-145.69 98.57 2.88 67
8 12/21/2019 21:41:56 -74.91, 21.60 81.42 12/21/2019 21:40:52 -74.91, 21.54 81.40 1.81 64




NCC Satellite Simultaneous Nadir Overpasses (SNOs) Prediction Service
